Notices

What's New in latest Release from April 7th, 2021:

- Updated Glossary, including Speed of Maximum Gust, and Total Hourly Precipitation

- Updated national and regional climate services offices contacts and prices information

- Addition of station inventory lists for 1981-2010, 1971-2000, and 1961-1990 Normals.

If you haven't already, please take our survey and provide feedback about our website: https://eccc.sondage-survey.ca/f/LanguageSelection.aspx?s=442ca660-fcf1-47c0-95a9-59707d6fd709

Hourly Data Report for September 05, 2019

TORONTO CITY
ONTARIO
Current Station Operator: ECCC - MSC

43°40'00.000" N
79°24'00.000" W
112.50 m
6158355
71508
XTO

Download Data

Hourly Data (September 2019)
Hourly Data Report for September 5, 2019
TIME
LST
Temp Definition
°C
Dew Point Definition
°C
Rel Hum Definition
%
Precip. Amount Definition
mm

Wind Dir Definition
10's deg

Wind Spd Definition
km/h
Visibility Definition
km
Stn Press Definition
kPa
Hmdx Definition


Wind Chill Definition


Weather Definition


00:00 14.6 9.2 70 0.0       100.59     LegendNANA
01:00 14.0 9.1 72 0.0       100.61     LegendNANA
02:00 13.5 9.3 75 0.0       100.58     LegendNANA
03:00 12.5 8.6 77 0.0       100.59     LegendNANA
04:00 13.3 8.8 74 0.0       100.64     LegendNANA
05:00 12.2 8.4 78 0.0       100.67     LegendNANA
06:00 12.0 8.1 77 0.0       100.71     LegendNANA
07:00 13.3 9.6 78 0.0       100.76     LegendNANA
08:00 16.2 10.2 67 0.0       100.79     LegendNANA
09:00 17.6 8.8 57 0.0       100.83     LegendNANA
10:00 17.9 9.3 57 0.0       100.80     LegendNANA
11:00 18.7 9.4 55 0.0       100.79     LegendNANA
12:00 20.0 8.5 47 0.0       100.71     LegendNANA
13:00 20.5 8.3 46 0.0       100.64     LegendNANA
14:00 20.4 6.5 40 0.0       100.60     LegendNANA
15:00 20.5 8.4 46 0.0       100.59     LegendNANA
16:00 20.2 8.1 46 0.0       100.53     LegendNANA
17:00 19.7 8.4 48 0.0       100.50     LegendNANA
18:00 19.2 7.3 46 0.0       100.48     LegendNANA
19:00 18.3 6.8 47 0.0       100.49     LegendNANA
20:00 17.4 8.4 55 0.0       100.50     LegendNANA
21:00 18.0 7.3 50 0.0       100.46     LegendNANA
22:00 17.5 7.8 53 0.0       100.44     LegendNANA
23:00 17.7 6.5 48 0.0       100.40     LegendNANA

Notes on Data Quality.

Legend

  • E = Estimated
  • M = Missing
  • NA = Not Available*
  • [empty] = Indicates an unobserved value
Date modified: